Time,TemperatureF,DewpointF,PressureIn,WindDirection,WindDirectionDegrees,WindSpeedMPH,WindSpeedGustMPH,Humidity,HourlyPrecipIn,Conditions,Clouds,dailyrainin,SoftwareType,DateUTC
2013-02-14 00:05:00,34.9,32.0,30.09,East,100,0.0,1.0,89,0.00,,,0.11,weatherlink.com 1.10,2013-02-14 05:05:00,
2013-02-14 00:20:00,34.8,32.0,30.09,ENE,72,0.0,5.0,88,0.00,,,0.11,weatherlink.com 1.10,2013-02-14 05:20:00,
2013-02-14 00:35:00,34.8,31.0,30.09,WNW,282,0.0,8.0,87,0.00,,,0.11,weatherlink.com 1.10,2013-02-14 05:35:00,
2013-02-14 00:50:00,34.8,31.0,30.09,NNE,15,0.0,4.0,87,0.00,,,0.11,weatherlink.com 1.10,2013-02-14 05:50:00,
2013-02-14 01:05:00,34.7,32.0,30.10,East,86,0.0,2.0,88,0.00,,,0.00,weatherlink.com 1.10,2013-02-14 06:05:00,
2013-02-14 01:20:00,34.6,31.0,30.10,ESE,118,0.0,5.0,88,0.00,,,0.00,weatherlink.com 1.10,2013-02-14 06:20:00,
2013-02-14 01:35:00,34.6,31.0,30.10,South,169,0.0,0.0,88,0.00,,,0.00,weatherlink.com 1.10,2013-02-14 06:35:00,
2013-02-14 01:50:00,34.5,31.0,30.10,NE,50,0.0,2.0,88,0.00,,,0.00,weatherlink.com 1.10,2013-02-14 06:50:00,
2013-02-14 02:05:00,34.5,31.0,30.11,NE,56,0.0,4.0,88,0.00,,,0.00,weatherlink.com 1.10,2013-02-14 07:05:00,
2013-02-14 02:20:00,34.4,31.0,30.10,West,264,0.0,3.0,87,0.00,,,0.00,weatherlink.com 1.10,2013-02-14 07:20:00,
2013-02-14 02:35:00,34.4,31.0,30.10,ENE,69,0.0,1.0,88,0.00,,,0.00,weatherlink.com 1.10,2013-02-14 07:35:00,
2013-02-14 02:50:00,34.3,31.0,30.11,NW,323,0.0,1.0,87,0.00,,,0.00,weatherlink.com 1.10,2013-02-14 07:50:00,
2013-02-14 03:06:00,34.2,31.0,30.11,West,281,0.0,3.0,87,0.00,,,0.00,weatherlink.com 1.10,2013-02-14 08:06:00,
2013-02-14 03:20:00,34.1,31.0,30.11,North,359,0.0,2.0,87,0.00,,,0.00,weatherlink.com 1.10,2013-02-14 08:20:00,
2013-02-14 03:35:00,34.1,31.0,30.11,SSE,155,0.0,0.0,89,0.00,,,0.00,weatherlink.com 1.10,2013-02-14 08:35:00,
2013-02-14 03:50:00,34.0,31.0,30.11,North,354,0.0,2.0,89,0.00,,,0.00,weatherlink.com 1.10,2013-02-14 08:50:00,
2013-02-14 04:05:00,33.9,31.0,30.11,NE,36,0.0,3.0,89,0.00,,,0.00,weatherlink.com 1.10,2013-02-14 09:05:00,
2013-02-14 04:20:00,33.9,31.0,30.11,ENE,78,0.0,1.0,89,0.00,,,0.00,weatherlink.com 1.10,2013-02-14 09:20:00,
2013-02-14 04:35:00,33.8,31.0,30.12,ESE,115,0.0,3.0,89,0.00,,,0.00,weatherlink.com 1.10,2013-02-14 09:35:00,
2013-02-14 04:50:00,33.7,31.0,30.11,NW,314,0.0,1.0,89,0.00,,,0.00,weatherlink.com 1.10,2013-02-14 09:50:00,
2013-02-14 05:06:00,33.7,31.0,30.12,ESE,113,0.0,1.0,89,0.00,,,0.00,weatherlink.com 1.10,2013-02-14 10:06:00,
2013-02-14 05:21:00,33.6,31.0,30.12,WNW,291,0.0,1.0,89,0.00,,,0.00,weatherlink.com 1.10,2013-02-14 10:21:00,
2013-02-14 05:36:00,33.5,30.0,30.12,SE,128,0.0,3.0,88,0.00,,,0.00,weatherlink.com 1.10,2013-02-14 10:36:00,
2013-02-14 05:51:00,33.4,30.0,30.12,ESE,104,0.0,0.0,88,0.00,,,0.00,weatherlink.com 1.10,2013-02-14 10:51:00,
2013-02-14 06:06:00,33.3,30.0,30.12,East,86,0.0,1.0,88,0.00,,,0.00,weatherlink.com 1.10,2013-02-14 11:06:00,
2013-02-14 06:21:00,33.3,30.0,30.13,SSW,211,0.0,3.0,87,0.00,,,0.00,weatherlink.com 1.10,2013-02-14 11:21:00,
2013-02-14 06:36:00,33.2,30.0,30.14,ESE,111,0.0,1.0,87,0.00,,,0.00,weatherlink.com 1.10,2013-02-14 11:36:00,
2013-02-14 06:51:00,33.2,30.0,30.14,ESE,110,0.0,2.0,87,0.00,,,0.00,weatherlink.com 1.10,2013-02-14 11:51:00,
2013-02-14 07:06:00,33.1,30.0,30.16,WNW,300,0.0,4.0,87,0.00,,,0.00,weatherlink.com 1.10,2013-02-14 12:06:00,
2013-02-14 07:21:00,33.1,30.0,30.15,ESE,117,0.0,1.0,87,0.00,,,0.00,weatherlink.com 1.10,2013-02-14 12:21:00,
2013-02-14 07:36:00,33.0,30.0,30.16,SSW,212,0.0,2.0,88,0.00,,,0.00,weatherlink.com 1.10,2013-02-14 12:36:00,
2013-02-14 07:51:00,32.8,30.0,30.16,SE,124,0.0,0.0,88,0.00,,,0.00,weatherlink.com 1.10,2013-02-14 12:51:00,
2013-02-14 08:06:00,32.7,30.0,30.18,NNW,342,0.0,4.0,88,0.00,,,0.00,weatherlink.com 1.10,2013-02-14 13:06:00,
2013-02-14 08:21:00,32.9,30.0,30.19,NNE,27,0.0,1.0,87,0.00,,,0.00,weatherlink.com 1.10,2013-02-14 13:21:00,
2013-02-14 08:36:00,33.4,30.0,30.20,WSW,256,0.0,1.0,86,0.00,,,0.00,weatherlink.com 1.10,2013-02-14 13:36:00,
2013-02-14 08:51:00,33.6,30.0,30.20,SE,140,0.0,0.0,86,0.00,,,0.00,weatherlink.com 1.10,2013-02-14 13:51:00,
2013-02-14 09:06:00,33.7,30.0,30.19,West,278,0.0,2.0,86,0.00,,,0.00,weatherlink.com 1.10,2013-02-14 14:06:00,
2013-02-14 09:21:00,34.2,30.0,30.20,SE,139,0.0,0.0,84,0.00,,,0.00,weatherlink.com 1.10,2013-02-14 14:21:00,
2013-02-14 09:36:00,34.9,30.0,30.21,SSW,212,1.0,3.0,83,0.00,,,0.00,weatherlink.com 1.10,2013-02-14 14:36:00,
2013-02-14 09:51:00,35.1,30.0,30.21,NW,309,0.0,1.0,81,0.00,,,0.00,weatherlink.com 1.10,2013-02-14 14:51:00,
2013-02-14 10:07:00,36.3,31.0,30.20,East,89,0.0,0.0,82,0.00,,,0.00,weatherlink.com 1.10,2013-02-14 15:07:00,
2013-02-14 10:22:00,37.0,31.0,30.19,NNE,30,0.0,2.0,79,0.00,,,0.00,weatherlink.com 1.10,2013-02-14 15:22:00,
2013-02-14 10:36:00,38.2,32.0,30.19,NNW,337,0.0,0.0,78,0.00,,,0.00,weatherlink.com 1.10,2013-02-14 15:36:00,
2013-02-14 10:52:00,38.6,32.0,30.19,West,276,0.0,2.0,76,0.00,,,0.00,weatherlink.com 1.10,2013-02-14 15:52:00,
2013-02-14 11:06:00,39.6,33.0,30.20,NNE,18,0.0,1.0,76,0.00,,,0.00,weatherlink.com 1.10,2013-02-14 16:06:00,
2013-02-14 11:22:00,40.1,33.0,30.21,NW,315,0.0,1.0,76,0.00,,,0.00,weatherlink.com 1.10,2013-02-14 16:22:00,
2013-02-14 11:36:00,40.8,31.0,30.22,NE,53,0.0,3.0,69,0.00,,,0.00,weatherlink.com 1.10,2013-02-14 16:36:00,
2013-02-14 11:52:00,42.6,31.0,30.21,NNW,347,0.0,1.0,64,0.00,,,0.00,weatherlink.com 1.10,2013-02-14 16:52:00,
2013-02-14 12:07:00,43.5,31.0,30.20,East,94,0.0,2.0,62,0.00,,,0.00,weatherlink.com 1.10,2013-02-14 17:07:00,
2013-02-14 12:22:00,43.5,30.0,30.19,East,82,0.0,2.0,60,0.00,,,0.00,weatherlink.com 1.10,2013-02-14 17:22:00,
2013-02-14 12:37:00,45.9,34.0,30.18,ESE,107,0.0,1.0,64,0.00,,,0.00,weatherlink.com 1.10,2013-02-14 17:37:00,
2013-02-14 12:52:00,47.0,32.0,30.18,SW,227,0.0,0.0,57,0.00,,,0.00,weatherlink.com 1.10,2013-02-14 17:52:00,
2013-02-14 13:07:00,48.3,32.0,30.16,WSW,257,0.0,4.0,54,0.00,,,0.00,weatherlink.com 1.10,2013-02-14 18:07:00,
2013-02-14 13:22:00,49.4,33.0,30.16,NE,44,0.0,0.0,53,0.00,,,0.00,weatherlink.com 1.10,2013-02-14 18:22:00,
2013-02-14 13:37:00,50.3,34.0,30.16,East,89,0.0,2.0,54,0.00,,,0.00,weatherlink.com 1.10,2013-02-14 18:37:00,
2013-02-14 13:52:00,49.0,33.0,30.17,ENE,67,0.0,4.0,55,0.00,,,0.00,weatherlink.com 1.10,2013-02-14 18:52:00,
2013-02-14 14:07:00,51.1,34.0,30.17,SE,129,0.0,1.0,52,0.00,,,0.00,weatherlink.com 1.10,2013-02-14 19:07:00,
2013-02-14 14:22:00,52.2,35.0,30.17,East,86,1.0,1.0,52,0.00,,,0.00,weatherlink.com 1.10,2013-02-14 19:22:00,
2013-02-14 14:37:00,52.7,35.0,30.16,WNW,302,0.0,2.0,51,0.00,,,0.00,weatherlink.com 1.10,2013-02-14 19:37:00,
2013-02-14 14:52:00,53.3,35.0,30.15,WNW,295,0.0,0.0,51,0.00,,,0.00,weatherlink.com 1.10,2013-02-14 19:52:00,
2013-02-14 15:07:00,53.9,34.0,30.16,NW,316,0.0,5.0,47,0.00,,,0.00,weatherlink.com 1.10,2013-02-14 20:07:00,
2013-02-14 15:22:00,53.6,33.0,30.16,WNW,300,0.0,4.0,45,0.00,,,0.00,weatherlink.com 1.10,2013-02-14 20:22:00,
2013-02-14 15:37:00,53.4,33.0,30.17,West,281,1.0,3.0,47,0.00,,,0.00,weatherlink.com 1.10,2013-02-14 20:37:00,
2013-02-14 15:52:00,53.4,34.0,30.16,WSW,248,0.0,4.0,48,0.00,,,0.00,weatherlink.com 1.10,2013-02-14 20:52:00,
2013-02-14 16:07:00,53.3,34.0,30.16,West,273,0.0,5.0,48,0.00,,,0.00,weatherlink.com 1.10,2013-02-14 21:07:00,
2013-02-14 16:22:00,53.5,33.0,30.16,WNW,295,2.0,4.0,46,0.00,,,0.00,weatherlink.com 1.10,2013-02-14 21:22:00,
2013-02-14 16:37:00,53.1,33.0,30.16,WSW,253,0.0,3.0,47,0.00,,,0.00,weatherlink.com 1.10,2013-02-14 21:37:00,
2013-02-14 16:52:00,52.9,35.0,30.16,WSW,246,0.0,4.0,50,0.00,,,0.00,weatherlink.com 1.10,2013-02-14 21:52:00,
2013-02-14 17:07:00,52.3,32.0,30.16,SSW,197,0.0,4.0,47,0.00,,,0.00,weatherlink.com 1.10,2013-02-14 22:07:00,
2013-02-14 17:22:00,51.5,35.0,30.16,WSW,249,0.0,2.0,53,0.00,,,0.00,weatherlink.com 1.10,2013-02-14 22:22:00,
2013-02-14 17:38:00,50.3,33.0,30.16,WSW,251,0.0,1.0,52,0.00,,,0.00,weatherlink.com 1.10,2013-02-14 22:38:00,
2013-02-14 17:52:00,48.5,32.0,30.16,West,276,0.0,1.0,53,0.00,,,0.00,weatherlink.com 1.10,2013-02-14 22:52:00,
2013-02-14 18:07:00,47.1,32.0,30.16,SW,221,0.0,1.0,56,0.00,,,0.00,weatherlink.com 1.10,2013-02-14 23:07:00,
2013-02-14 18:22:00,45.7,32.0,30.16,SW,221,0.0,0.0,60,0.00,,,0.00,weatherlink.com 1.10,2013-02-14 23:22:00,
2013-02-14 18:37:00,44.5,32.0,30.17,West,279,0.0,0.0,63,0.00,,,0.00,weatherlink.com 1.10,2013-02-14 23:37:00,
2013-02-14 18:52:00,43.4,32.0,30.18,SSE,167,0.0,0.0,65,0.00,,,0.00,weatherlink.com 1.10,2013-02-14 23:52:00,
2013-02-14 19:07:00,42.2,32.0,30.18,SSE,167,0.0,0.0,68,0.00,,,0.00,weatherlink.com 1.10,2013-02-15 00:07:00,
2013-02-14 19:22:00,41.0,32.0,30.18,SSE,166,0.0,0.0,71,0.00,,,0.00,weatherlink.com 1.10,2013-02-15 00:22:00,
2013-02-14 19:38:00,40.4,32.0,30.18,WNW,303,0.0,0.0,71,0.00,,,0.00,weatherlink.com 1.10,2013-02-15 00:38:00,
2013-02-14 19:52:00,39.7,32.0,30.18,North,358,0.0,0.0,74,0.00,,,0.00,weatherlink.com 1.10,2013-02-15 00:52:00,
2013-02-14 20:07:00,38.5,32.0,30.18,East,84,0.0,0.0,77,0.00,,,0.00,weatherlink.com 1.10,2013-02-15 01:07:00,
2013-02-14 20:23:00,39.2,32.0,30.18,East,81,0.0,0.0,74,0.00,,,0.00,weatherlink.com 1.10,2013-02-15 01:23:00,
2013-02-14 20:37:00,38.7,33.0,30.18,East,82,0.0,0.0,79,0.00,,,0.00,weatherlink.com 1.10,2013-02-15 01:37:00,
2013-02-14 20:52:00,38.9,32.0,30.18,East,82,0.0,0.0,77,0.00,,,0.00,weatherlink.com 1.10,2013-02-15 01:52:00,
2013-02-14 21:07:00,37.3,32.0,30.19,East,82,0.0,0.0,80,0.00,,,0.00,weatherlink.com 1.10,2013-02-15 02:07:00,
2013-02-14 21:22:00,36.6,31.0,30.20,East,82,0.0,0.0,81,0.00,,,0.00,weatherlink.com 1.10,2013-02-15 02:22:00,
2013-02-14 21:37:00,35.3,31.0,30.20,NNE,12,0.0,0.0,85,0.00,,,0.00,weatherlink.com 1.10,2013-02-15 02:37:00,
2013-02-14 21:53:00,34.4,31.0,30.20,WNW,301,0.0,0.0,86,0.00,,,0.00,weatherlink.com 1.10,2013-02-15 02:53:00,
2013-02-14 22:08:00,33.4,30.0,30.20,SW,222,0.0,0.0,88,0.00,,,0.00,weatherlink.com 1.10,2013-02-15 03:08:00,
2013-02-14 22:23:00,32.5,30.0,30.21,SSW,201,0.0,0.0,89,0.00,,,0.00,weatherlink.com 1.10,2013-02-15 03:23:00,
2013-02-14 22:38:00,32.5,30.0,30.21,WNW,288,0.0,0.0,89,0.00,,,0.00,weatherlink.com 1.10,2013-02-15 03:38:00,
2013-02-14 22:53:00,32.4,30.0,30.21,East,79,0.0,0.0,89,0.00,,,0.00,weatherlink.com 1.10,2013-02-15 03:53:00,
2013-02-14 23:08:00,32.2,29.0,30.21,ENE,77,0.0,0.0,89,0.00,,,0.00,weatherlink.com 1.10,2013-02-15 04:08:00,
2013-02-14 23:23:00,31.8,29.0,30.21,East,93,0.0,0.0,90,0.00,,,0.00,weatherlink.com 1.10,2013-02-15 04:23:00,
2013-02-14 23:38:00,32.1,30.0,30.21,East,84,0.0,0.0,90,0.00,,,0.00,weatherlink.com 1.10,2013-02-15 04:38:00,
2013-02-14 23:53:00,31.7,29.0,30.21,East,79,0.0,0.0,90,0.00,,,0.00,weatherlink.com 1.10,2013-02-15 04:53:00,